Time,TemperatureF,DewpointF,PressureIn,WindDirection,WindDirectionDegrees,WindSpeedMPH,WindSpeedGustMPH,Humidity,HourlyPrecipIn,Conditions,Clouds,dailyrainin,SoftwareType,DateUTC
2013-04-24 00:02:00,43.5,39.0,29.92,NNE,21,11.2,15.0,84,0.00,RA,,0.00,WeatherDisplay:10.37,2013-04-24 05:02:00,
2013-04-24 00:07:00,43.5,39.3,29.91,NW,313,12.0,15.0,85,0.00,RA,,0.00,WeatherDisplay:10.37,2013-04-24 05:07:00,
2013-04-24 00:12:00,43.3,38.8,29.91,NW,313,15.0,20.7,84,0.00,OVC,,0.00,WeatherDisplay:10.37,2013-04-24 05:12:00,
2013-04-24 00:17:00,43.2,38.7,29.92,NNW,335,16.1,20.7,84,0.00,OVC,,0.00,WeatherDisplay:10.37,2013-04-24 05:17:00,
2013-04-24 00:22:00,43.0,38.8,29.92,NNW,335,12.4,17.3,85,0.00,OVC,,0.00,WeatherDisplay:10.37,2013-04-24 05:22:00,
2013-04-24 00:27:00,43.0,38.8,29.92,North,358,12.7,16.1,85,0.00,OVC,,0.00,WeatherDisplay:10.37,2013-04-24 05:27:00,
2013-04-24 00:32:00,42.8,38.6,29.92,NNW,335,10.4,12.3,85,0.00,OVC,,0.00,WeatherDisplay:10.37,2013-04-24 05:32:00,
2013-04-24 00:37:00,42.8,38.6,29.92,NW,313,12.1,17.3,85,0.00,OVC,,0.00,WeatherDisplay:10.37,2013-04-24 05:37:00,
2013-04-24 00:42:00,42.6,38.1,29.92,NNW,335,14.1,18.4,84,0.00,OVC,,0.00,WeatherDisplay:10.37,2013-04-24 05:42:00,
2013-04-24 00:47:00,42.4,38.2,29.92,NNW,335,12.8,16.1,85,0.00,OVC,,0.00,WeatherDisplay:10.37,2013-04-24 05:47:00,
2013-04-24 00:52:00,42.3,38.1,29.92,NW,313,12.6,16.6,85,0.00,OVC,,0.00,WeatherDisplay:10.37,2013-04-24 05:52:00,
2013-04-24 00:57:00,42.3,38.1,29.92,North,358,9.9,16.1,85,0.00,OVC,,0.00,WeatherDisplay:10.37,2013-04-24 05:57:00,
2013-04-24 01:02:00,42.3,38.4,29.92,North,358,12.0,18.4,86,0.00,OVC,,0.00,WeatherDisplay:10.37,2013-04-24 06:02:00,
2013-04-24 01:07:00,42.3,38.4,29.92,NW,313,10.7,12.7,86,0.00,OVC,,0.00,WeatherDisplay:10.37,2013-04-24 06:07:00,
2013-04-24 01:12:00,42.3,38.1,29.92,North,358,12.5,16.1,85,0.00,OVC,,0.00,WeatherDisplay:10.37,2013-04-24 06:12:00,
2013-04-24 01:17:00,42.4,38.2,29.92,NNW,335,8.3,12.2,85,0.00,OVC,,0.00,WeatherDisplay:10.37,2013-04-24 06:17:00,
2013-04-24 01:22:00,42.4,38.2,29.92,NE,43,9.5,15.0,85,0.00,OVC,,0.00,WeatherDisplay:10.37,2013-04-24 06:22:00,
2013-04-24 01:27:00,42.4,37.6,29.92,NNW,335,17.2,19.6,83,0.00,OVC,,0.00,WeatherDisplay:10.37,2013-04-24 06:27:00,
2013-04-24 01:32:00,42.4,37.6,29.93,North,358,10.9,15.0,83,0.00,OVC,,0.00,WeatherDisplay:10.37,2013-04-24 06:32:00,
2013-04-24 01:37:00,42.3,37.8,29.92,NNW,335,13.7,18.4,84,0.00,OVC,,0.00,WeatherDisplay:10.37,2013-04-24 06:37:00,
2013-04-24 01:42:00,42.1,37.6,29.92,North,358,12.5,18.4,84,0.00,OVC,,0.00,WeatherDisplay:10.37,2013-04-24 06:42:00,
2013-04-24 01:47:00,42.1,37.9,29.91,NW,313,13.4,18.4,85,0.00,OVC,,0.00,WeatherDisplay:10.37,2013-04-24 06:47:00,
2013-04-24 01:52:00,41.9,38.0,29.90,North,358,14.6,18.4,86,0.00,OVC,,0.00,WeatherDisplay:10.37,2013-04-24 06:52:00,
2013-04-24 01:57:00,41.9,37.7,29.91,NNW,335,9.6,17.3,85,0.01,RA,,0.01,WeatherDisplay:10.37,2013-04-24 06:57:00,
2013-04-24 02:02:00,41.7,37.5,29.90,NW,313,13.1,18.4,85,0.01,RA,,0.01,WeatherDisplay:10.37,2013-04-24 07:02:00,
2013-04-24 02:07:00,41.5,37.7,29.91,North,358,10.8,11.5,86,0.01,OVC,,0.01,WeatherDisplay:10.37,2013-04-24 07:07:00,
2013-04-24 02:12:00,41.5,37.7,29.92,North,358,8.1,13.8,86,0.01,OVC,,0.01,WeatherDisplay:10.37,2013-04-24 07:12:00,
2013-04-24 02:17:00,41.5,38.0,29.92,NW,313,9.4,12.7,87,0.01,OVC,,0.01,WeatherDisplay:10.37,2013-04-24 07:17:00,
2013-04-24 02:22:00,41.5,38.0,29.93,NNW,335,8.9,12.7,87,0.01,OVC,,0.01,WeatherDisplay:10.37,2013-04-24 07:22:00,
2013-04-24 02:27:00,41.4,37.5,29.93,NNW,335,10.6,15.0,86,0.01,OVC,,0.01,WeatherDisplay:10.37,2013-04-24 07:27:00,
2013-04-24 02:32:00,41.4,37.5,29.92,NW,313,9.3,12.7,86,0.01,OVC,,0.01,WeatherDisplay:10.37,2013-04-24 07:32:00,
2013-04-24 02:37:00,41.4,37.5,29.93,North,358,10.2,12.7,86,0.01,OVC,,0.01,WeatherDisplay:10.37,2013-04-24 07:37:00,
2013-04-24 02:42:00,41.4,37.5,29.95,NNW,335,7.4,10.4,86,0.01,OVC,,0.01,WeatherDisplay:10.37,2013-04-24 07:42:00,
2013-04-24 02:47:00,41.4,37.5,29.92,NNW,335,8.1,11.0,86,0.01,OVC,,0.01,WeatherDisplay:10.37,2013-04-24 07:47:00,
2013-04-24 02:52:00,41.4,37.5,29.93,North,358,8.7,13.8,86,0.01,OVC,,0.01,WeatherDisplay:10.37,2013-04-24 07:52:00,
2013-04-24 02:57:00,41.4,37.5,29.94,NW,313,7.5,9.2,86,0.00,OVC,,0.01,WeatherDisplay:10.37,2013-04-24 07:57:00,
2013-04-24 03:02:00,41.5,37.7,29.95,NNW,335,7.7,13.8,86,0.00,OVC,,0.01,WeatherDisplay:10.37,2013-04-24 08:02:00,
2013-04-24 03:07:00,41.5,37.7,29.94,NNW,335,11.3,16.1,86,0.00,OVC,,0.01,WeatherDisplay:10.37,2013-04-24 08:07:00,
2013-04-24 03:12:00,41.5,37.7,29.95,NW,313,10.0,15.1,86,0.00,OVC,,0.01,WeatherDisplay:10.37,2013-04-24 08:12:00,
2013-04-24 03:17:00,41.4,37.2,29.94,NW,313,12.4,16.1,85,0.00,OVC,,0.01,WeatherDisplay:10.37,2013-04-24 08:17:00,
2013-04-24 03:22:00,41.4,37.2,29.95,North,358,10.8,13.8,85,0.00,OVC,,0.01,WeatherDisplay:10.37,2013-04-24 08:22:00,
2013-04-24 03:27:00,41.5,37.4,29.95,NNW,335,10.8,15.0,85,0.00,OVC,,0.01,WeatherDisplay:10.37,2013-04-24 08:27:00,
2013-04-24 03:32:00,41.5,37.1,29.96,NNW,335,12.0,15.0,84,0.00,OVC,,0.01,WeatherDisplay:10.37,2013-04-24 08:32:00,
2013-04-24 03:37:00,41.4,36.9,29.95,NNW,335,12.3,18.4,84,0.00,OVC,,0.01,WeatherDisplay:10.37,2013-04-24 08:37:00,
2013-04-24 03:42:00,41.4,36.9,29.96,NW,313,13.1,16.1,84,0.00,OVC,,0.01,WeatherDisplay:10.37,2013-04-24 08:42:00,
2013-04-24 03:47:00,41.4,36.9,29.96,NW,313,13.2,17.3,84,0.00,OVC,,0.01,WeatherDisplay:10.37,2013-04-24 08:47:00,
2013-04-24 03:52:00,41.4,36.9,29.96,North,358,18.3,18.4,84,0.00,OVC,,0.01,WeatherDisplay:10.37,2013-04-24 08:52:00,
2013-04-24 03:57:00,41.4,36.6,29.96,North,358,14.5,21.9,83,0.00,OVC,,0.01,WeatherDisplay:10.37,2013-04-24 08:57:00,
2013-04-24 04:02:00,41.4,36.3,29.96,NNW,335,16.6,21.9,82,0.00,OVC,,0.01,WeatherDisplay:10.37,2013-04-24 09:02:00,
2013-04-24 04:07:00,41.4,36.3,29.97,NW,313,14.0,17.3,82,0.00,OVC,,0.01,WeatherDisplay:10.37,2013-04-24 09:07:00,
2013-04-24 04:12:00,41.4,36.3,29.97,North,358,10.4,13.8,82,0.00,OVC,,0.01,WeatherDisplay:10.37,2013-04-24 09:12:00,
2013-04-24 04:17:00,41.4,36.3,29.97,NNW,335,12.1,16.1,82,0.00,OVC,,0.01,WeatherDisplay:10.37,2013-04-24 09:17:00,
2013-04-24 04:23:00,41.4,36.3,29.97,NNW,335,10.0,12.7,82,0.00,OVC,,0.01,WeatherDisplay:10.37,2013-04-24 09:23:00,
2013-04-24 04:28:00,41.4,36.6,29.97,NNW,335,10.8,15.0,83,0.00,OVC,,0.01,WeatherDisplay:10.37,2013-04-24 09:28:00,
2013-04-24 04:33:00,41.4,36.9,29.96,NW,313,10.5,13.8,84,0.00,OVC,,0.01,WeatherDisplay:10.37,2013-04-24 09:33:00,
2013-04-24 04:38:00,41.4,36.9,29.97,NNW,335,8.1,10.8,84,0.00,OVC,,0.01,WeatherDisplay:10.37,2013-04-24 09:38:00,
2013-04-24 04:43:00,41.4,36.6,29.97,North,358,11.1,16.1,83,0.00,OVC,,0.01,WeatherDisplay:10.37,2013-04-24 09:43:00,
2013-04-24 04:48:00,41.2,36.4,29.97,North,358,10.5,15.0,83,0.00,OVC,,0.01,WeatherDisplay:10.37,2013-04-24 09:48:00,
2013-04-24 04:53:00,41.2,36.7,29.97,North,358,12.1,16.1,84,0.00,OVC,,0.01,WeatherDisplay:10.37,2013-04-24 09:53:00,
2013-04-24 04:58:00,41.2,36.4,29.97,North,358,10.9,13.8,83,0.00,OVC,,0.01,WeatherDisplay:10.37,2013-04-24 09:58:00,
2013-04-24 05:03:00,41.2,36.1,29.97,North,358,12.7,17.3,82,0.00,OVC,,0.01,WeatherDisplay:10.37,2013-04-24 10:03:00,
2013-04-24 05:08:00,41.0,36.2,29.97,North,358,10.0,15.0,83,0.00,OVC,,0.01,WeatherDisplay:10.37,2013-04-24 10:08:00,
2013-04-24 05:13:00,41.0,35.9,29.97,North,358,11.5,15.0,82,0.00,OVC,,0.01,WeatherDisplay:10.37,2013-04-24 10:13:00,
2013-04-24 05:18:00,41.0,36.2,29.97,NNW,335,11.9,16.1,83,0.00,OVC,,0.01,WeatherDisplay:10.37,2013-04-24 10:18:00,
2013-04-24 05:23:00,40.8,36.1,29.97,NW,313,11.8,16.1,83,0.00,OVC,,0.01,WeatherDisplay:10.37,2013-04-24 10:23:00,
2013-04-24 05:28:00,40.8,35.7,29.97,North,358,9.0,16.1,82,0.00,OVC,,0.01,WeatherDisplay:10.37,2013-04-24 10:28:00,
2013-04-24 05:33:00,41.0,35.9,29.98,North,358,13.4,18.4,82,0.00,OVC,,0.01,WeatherDisplay:10.37,2013-04-24 10:33:00,
2013-04-24 05:38:00,40.8,35.7,29.98,NNW,335,8.6,10.4,82,0.00,OVC,,0.01,WeatherDisplay:10.37,2013-04-24 10:38:00,
2013-04-24 05:43:00,40.8,36.1,29.97,NNW,335,9.3,13.8,83,0.00,OVC,,0.01,WeatherDisplay:10.37,2013-04-24 10:43:00,
2013-04-24 05:48:00,40.8,35.7,29.98,North,358,10.8,13.8,82,0.00,OVC,,0.01,WeatherDisplay:10.37,2013-04-24 10:48:00,
2013-04-24 05:53:00,40.6,35.6,29.98,NW,313,10.8,13.8,82,0.00,OVC,,0.01,WeatherDisplay:10.37,2013-04-24 10:53:00,
2013-04-24 05:58:00,40.6,35.9,29.99,North,358,10.9,14.4,83,0.00,OVC,,0.01,WeatherDisplay:10.37,2013-04-24 10:58:00,
2013-04-24 06:03:00,40.6,35.6,29.99,NNW,335,11.6,16.1,82,0.00,OVC,,0.01,WeatherDisplay:10.37,2013-04-24 11:03:00,
2013-04-24 06:08:00,40.6,35.6,30.00,North,358,10.2,11.5,82,0.00,OVC,,0.01,WeatherDisplay:10.37,2013-04-24 11:08:00,
2013-04-24 06:13:00,40.6,35.3,30.00,North,358,14.9,17.3,81,0.00,OVC,,0.01,WeatherDisplay:10.37,2013-04-24 11:13:00,
2013-04-24 06:18:00,40.6,35.6,30.00,North,358,11.3,15.0,82,0.00,OVC,,0.01,WeatherDisplay:10.37,2013-04-24 11:18:00,
2013-04-24 06:23:00,40.6,35.3,30.00,North,358,9.8,16.1,81,0.00,OVC,,0.01,WeatherDisplay:10.37,2013-04-24 11:23:00,
2013-04-24 06:28:00,40.6,35.3,30.00,NNW,335,10.9,12.9,81,0.00,OVC,,0.01,WeatherDisplay:10.37,2013-04-24 11:28:00,
2013-04-24 06:33:00,40.6,35.3,30.01,North,358,11.2,16.1,81,0.00,OVC,,0.01,WeatherDisplay:10.37,2013-04-24 11:33:00,
2013-04-24 06:38:00,40.6,35.3,30.00,NNW,335,12.2,16.1,81,0.00,OVC,,0.01,WeatherDisplay:10.37,2013-04-24 11:38:00,
2013-04-24 06:43:00,40.6,35.3,30.01,North,358,12.4,15.3,81,0.00,OVC,,0.01,WeatherDisplay:10.37,2013-04-24 11:43:00,
2013-04-24 06:48:00,40.6,35.3,30.01,North,358,10.9,15.0,81,0.00,OVC,,0.01,WeatherDisplay:10.37,2013-04-24 11:48:00,
2013-04-24 06:53:00,40.6,35.3,30.02,NW,313,13.0,17.7,81,0.00,OVC,,0.01,WeatherDisplay:10.37,2013-04-24 11:53:00,
2013-04-24 06:58:00,40.6,35.0,30.02,North,358,10.4,13.8,80,0.00,OVC,,0.01,WeatherDisplay:10.37,2013-04-24 11:58:00,
2013-04-24 07:03:00,40.6,35.0,30.02,North,358,11.1,16.1,80,0.00,OVC,,0.01,WeatherDisplay:10.37,2013-04-24 12:03:00,
2013-04-24 07:08:00,40.6,35.0,30.02,NNW,335,10.2,14.0,80,0.00,OVC,,0.01,WeatherDisplay:10.37,2013-04-24 12:08:00,
2013-04-24 07:13:00,40.6,35.0,30.02,NNW,335,9.7,15.0,80,0.00,OVC,,0.01,WeatherDisplay:10.37,2013-04-24 12:13:00,
2013-04-24 07:18:00,40.8,35.4,30.02,North,358,10.2,14.0,81,0.00,OVC,,0.01,WeatherDisplay:10.37,2013-04-24 12:18:00,
2013-04-24 07:23:00,40.8,35.1,30.02,North,358,12.4,16.1,80,0.00,OVC,,0.01,WeatherDisplay:10.37,2013-04-24 12:23:00,
2013-04-24 07:28:00,40.8,35.1,30.02,NNW,335,11.2,13.8,80,0.00,OVC,,0.01,WeatherDisplay:10.37,2013-04-24 12:28:00,
2013-04-24 07:33:00,41.0,35.3,30.02,North,358,10.2,12.7,80,0.00,OVC,,0.01,WeatherDisplay:10.37,2013-04-24 12:33:00,
2013-04-24 07:38:00,41.0,35.3,30.03,NE,43,7.5,9.8,80,0.00,OVC,,0.01,WeatherDisplay:10.37,2013-04-24 12:38:00,
2013-04-24 07:43:00,41.2,35.2,30.02,North,358,10.4,12.7,79,0.00,OVC,,0.01,WeatherDisplay:10.37,2013-04-24 12:43:00,
2013-04-24 07:48:00,41.2,35.2,30.03,NNW,335,10.7,15.0,79,0.00,OVC,,0.01,WeatherDisplay:10.37,2013-04-24 12:48:00,
2013-04-24 07:53:00,41.2,35.5,30.03,NW,313,7.1,10.8,80,0.00,OVC,,0.01,WeatherDisplay:10.37,2013-04-24 12:53:00,
2013-04-24 07:58:00,41.4,35.7,30.02,NNW,335,9.2,9.9,80,0.00,OVC,,0.01,WeatherDisplay:10.37,2013-04-24 12:58:00,
2013-04-24 08:03:00,41.4,35.3,30.02,North,358,9.4,12.7,79,0.00,OVC,,0.01,WeatherDisplay:10.37,2013-04-24 13:03:00,
2013-04-24 08:08:00,41.4,35.3,30.02,NNW,335,8.4,10.4,79,0.00,OVC,,0.01,WeatherDisplay:10.37,2013-04-24 13:08:00,
2013-04-24 08:13:00,41.5,35.5,30.02,North,358,10.1,12.7,79,0.00,OVC,,0.01,WeatherDisplay:10.37,2013-04-24 13:13:00,
2013-04-24 08:18:00,41.5,35.2,30.02,NNE,21,9.6,11.5,78,0.00,OVC,,0.01,WeatherDisplay:10.37,2013-04-24 13:18:00,
2013-04-24 08:23:00,41.7,35.4,30.03,North,358,8.6,12.7,78,0.00,OVC,,0.01,WeatherDisplay:10.37,2013-04-24 13:23:00,
2013-04-24 08:28:00,41.7,35.4,30.03,NNW,335,11.0,14.1,78,0.00,OVC,,0.01,WeatherDisplay:10.37,2013-04-24 13:28:00,
2013-04-24 08:33:00,41.7,35.0,30.03,North,358,9.5,13.8,77,0.00,OVC,,0.01,WeatherDisplay:10.37,2013-04-24 13:33:00,
2013-04-24 08:38:00,42.1,35.1,30.03,NNW,335,10.7,17.3,76,0.00,OVC,,0.01,WeatherDisplay:10.37,2013-04-24 13:38:00,
2013-04-24 08:43:00,42.1,35.1,30.03,NNE,21,10.4,13.0,76,0.00,OVC,,0.01,WeatherDisplay:10.37,2013-04-24 13:43:00,
2013-04-24 08:48:00,42.3,34.6,30.03,NNE,21,10.9,16.1,74,0.00,OVC,,0.01,WeatherDisplay:10.37,2013-04-24 13:48:00,
2013-04-24 08:53:00,42.3,34.6,30.03,NNW,335,11.1,16.1,74,0.00,OVC,,0.01,WeatherDisplay:10.37,2013-04-24 13:53:00,
2013-04-24 08:58:00,41.9,33.9,30.04,North,358,8.8,13.8,73,0.00,OVC,,0.01,WeatherDisplay:10.37,2013-04-24 13:58:00,
2013-04-24 09:03:00,42.1,34.4,30.04,NNW,335,13.2,16.1,74,0.00,OVC,,0.01,WeatherDisplay:10.37,2013-04-24 14:03:00,
2013-04-24 09:08:00,42.6,34.9,30.04,NE,43,7.9,12.7,74,0.00,OVC,,0.01,WeatherDisplay:10.37,2013-04-24 14:08:00,
2013-04-24 09:13:00,43.2,35.8,30.04,NNW,335,8.9,15.0,75,0.00,OVC,,0.01,WeatherDisplay:10.37,2013-04-24 14:13:00,
2013-04-24 09:18:00,43.2,35.4,30.04,North,358,10.9,13.8,74,0.00,OVC,,0.01,WeatherDisplay:10.37,2013-04-24 14:18:00,
2013-04-24 09:23:00,43.2,35.4,30.05,NW,313,7.4,9.7,74,0.00,OVC,,0.01,WeatherDisplay:10.37,2013-04-24 14:23:00,
2013-04-24 09:28:00,43.5,35.4,30.05,NE,43,10.0,15.0,73,0.00,OVC,,0.01,WeatherDisplay:10.37,2013-04-24 14:28:00,
2013-04-24 09:33:00,43.7,35.3,30.05,North,358,11.7,16.1,72,0.00,OVC,,0.01,WeatherDisplay:10.37,2013-04-24 14:33:00,
2013-04-24 09:38:00,43.9,35.8,30.05,NE,43,8.5,13.8,73,0.00,OVC,,0.01,WeatherDisplay:10.37,2013-04-24 14:38:00,
2013-04-24 09:43:00,44.1,35.6,30.05,NNE,21,10.9,13.8,72,0.00,OVC,,0.01,WeatherDisplay:10.37,2013-04-24 14:43:00,
2013-04-24 09:48:00,44.2,35.8,30.05,NNE,21,11.5,13.8,72,0.00,OVC,,0.01,WeatherDisplay:10.37,2013-04-24 14:48:00,
2013-04-24 09:53:00,44.4,35.6,30.05,NNE,21,13.1,16.6,71,0.00,OVC,,0.01,WeatherDisplay:10.37,2013-04-24 14:53:00,
2013-04-24 09:58:00,44.6,35.4,30.05,NE,43,11.2,12.7,70,0.00,OVC,,0.01,WeatherDisplay:10.37,2013-04-24 14:58:00,
2013-04-24 10:04:00,44.8,35.9,30.04,NNE,21,9.4,11.5,71,0.00,SCT,,0.01,WeatherDisplay:10.37,2013-04-24 15:04:00,
2013-04-24 10:09:00,45.0,36.1,30.04,NNW,335,9.4,12.7,71,0.00,SCT,,0.01,WeatherDisplay:10.37,2013-04-24 15:09:00,
2013-04-24 10:14:00,45.3,36.5,30.05,NE,43,10.8,13.8,71,0.00,SCT,,0.01,WeatherDisplay:10.37,2013-04-24 15:14:00,
2013-04-24 10:19:00,45.7,36.1,30.05,NNW,335,11.8,14.0,69,0.00,SCT,,0.01,WeatherDisplay:10.37,2013-04-24 15:19:00,
2013-04-24 10:24:00,45.7,36.1,30.05,NNW,335,12.0,12.7,69,0.00,SCT,,0.01,WeatherDisplay:10.37,2013-04-24 15:24:00,
2013-04-24 10:29:00,45.7,36.8,30.04,North,358,11.7,14.8,71,0.00,SCT,,0.01,WeatherDisplay:10.37,2013-04-24 15:29:00,
2013-04-24 10:34:00,45.9,36.3,30.04,North,358,9.9,11.5,69,0.00,SCT,,0.01,WeatherDisplay:10.37,2013-04-24 15:34:00,
2013-04-24 10:39:00,46.0,36.4,30.05,NNE,21,11.8,15.9,69,0.00,SCT,,0.01,WeatherDisplay:10.37,2013-04-24 15:39:00,
2013-04-24 10:44:00,46.0,36.4,30.05,NE,43,10.1,12.7,69,0.00,SCT,,0.01,WeatherDisplay:10.37,2013-04-24 15:44:00,
2013-04-24 10:49:00,46.4,36.0,30.05,North,358,11.3,17.3,67,0.00,SCT,,0.01,WeatherDisplay:10.37,2013-04-24 15:49:00,
2013-04-24 10:54:00,46.4,35.7,30.05,NNW,335,9.1,15.0,66,0.00,SCT,,0.01,WeatherDisplay:10.37,2013-04-24 15:54:00,
2013-04-24 10:59:00,46.8,37.1,30.05,NNE,21,10.9,13.8,69,0.00,SCT,,0.01,WeatherDisplay:10.37,2013-04-24 15:59:00,
2013-04-24 11:04:00,47.3,36.9,30.05,NNW,335,12.8,18.4,67,0.00,SCT,,0.01,WeatherDisplay:10.37,2013-04-24 16:04:00,
2013-04-24 11:09:00,47.5,37.1,30.05,NE,43,11.1,15.0,67,0.00,SCT,,0.01,WeatherDisplay:10.37,2013-04-24 16:09:00,
2013-04-24 11:14:00,48.0,37.2,30.05,NNW,335,10.7,13.8,66,0.00,SCT,,0.01,WeatherDisplay:10.37,2013-04-24 16:14:00,
2013-04-24 11:19:00,48.0,36.8,30.05,NNW,335,10.7,18.4,65,0.00,SCT,,0.01,WeatherDisplay:10.37,2013-04-24 16:19:00,
2013-04-24 11:24:00,48.0,36.4,30.04,North,358,11.3,16.1,64,0.00,SCT,,0.01,WeatherDisplay:10.37,2013-04-24 16:24:00,
2013-04-24 11:29:00,48.2,37.0,30.05,NE,43,11.1,13.8,65,0.00,SCT,,0.01,WeatherDisplay:10.37,2013-04-24 16:29:00,
2013-04-24 11:34:00,48.6,37.3,30.05,NNE,21,9.0,13.8,65,0.00,SCT,,0.01,WeatherDisplay:10.37,2013-04-24 16:34:00,
2013-04-24 11:39:00,48.7,37.1,30.05,NNW,335,10.1,13.8,64,0.00,SCT,,0.01,WeatherDisplay:10.37,2013-04-24 16:39:00,
2013-04-24 11:44:00,49.1,37.4,30.05,North,358,11.8,13.8,64,0.00,SCT,,0.01,WeatherDisplay:10.37,2013-04-24 16:44:00,
2013-04-24 11:49:00,49.3,37.2,30.05,NNW,335,10.6,15.0,63,0.00,SCT,,0.01,WeatherDisplay:10.37,2013-04-24 16:49:00,
2013-04-24 11:54:00,49.5,37.8,30.05,NNE,21,12.6,17.3,64,0.00,SCT,,0.01,WeatherDisplay:10.37,2013-04-24 16:54:00,
2013-04-24 12:00:00,49.6,37.1,30.04,North,358,9.2,15.0,62,0.00,SCT,,0.01,WeatherDisplay:10.37,2013-04-24 17:00:00,
2013-04-24 12:05:00,49.8,38.1,30.04,NNE,21,13.2,16.1,64,0.00,SCT,,0.01,WeatherDisplay:10.37,2013-04-24 17:05:00,
2013-04-24 12:10:00,50.0,37.9,30.03,NNE,21,13.7,16.1,63,0.00,SCT,,0.01,WeatherDisplay:10.37,2013-04-24 17:10:00,
2013-04-24 12:15:00,50.5,38.0,30.03,NNE,21,14.3,17.3,62,0.00,SCT,,0.01,WeatherDisplay:10.37,2013-04-24 17:15:00,
2013-04-24 12:20:00,50.7,38.2,30.03,NNE,21,8.4,12.7,62,0.00,SCT,,0.01,WeatherDisplay:10.37,2013-04-24 17:20:00,
2013-04-24 12:25:00,50.7,39.0,30.03,NNE,21,11.3,17.3,64,0.00,SCT,,0.01,WeatherDisplay:10.37,2013-04-24 17:25:00,
2013-04-24 12:30:00,51.1,36.8,30.03,NE,43,13.5,17.3,58,0.00,SCT,,0.01,WeatherDisplay:10.37,2013-04-24 17:30:00,
2013-04-24 12:35:00,51.4,37.6,30.03,NE,43,13.9,17.3,59,0.00,SCT,,0.01,WeatherDisplay:10.37,2013-04-24 17:35:00,
2013-04-24 12:40:00,51.3,37.4,30.03,NE,43,6.7,10.4,59,0.00,SCT,,0.01,WeatherDisplay:10.37,2013-04-24 17:40:00,
2013-04-24 12:45:00,51.6,37.3,30.03,North,358,13.5,17.3,58,0.00,SCT,,0.01,WeatherDisplay:10.37,2013-04-24 17:45:00,
2013-04-24 12:50:00,51.8,37.5,30.02,North,358,8.3,12.7,58,0.00,SCT,,0.01,WeatherDisplay:10.37,2013-04-24 17:50:00,
2013-04-24 12:55:00,52.2,38.7,30.02,NE,43,10.3,12.7,60,0.00,SCT,,0.01,WeatherDisplay:10.37,2013-04-24 17:55:00,
2013-04-24 13:00:00,52.5,38.6,30.02,NE,43,9.3,15.0,59,0.00,SCT,,0.01,WeatherDisplay:10.37,2013-04-24 18:00:00,
2013-04-24 13:05:00,52.9,38.9,30.02,NE,43,8.9,12.8,59,0.00,CLR,,0.01,WeatherDisplay:10.37,2013-04-24 18:05:00,
2013-04-24 13:10:00,53.2,38.8,30.01,NE,43,8.2,11.5,58,0.00,CLR,,0.01,WeatherDisplay:10.37,2013-04-24 18:10:00,
2013-04-24 13:15:00,53.2,37.9,30.01,North,358,10.0,13.8,56,0.00,CLR,,0.01,WeatherDisplay:10.37,2013-04-24 18:15:00,
2013-04-24 13:20:00,53.2,38.4,30.01,NNE,21,8.4,11.5,57,0.00,CLR,,0.01,WeatherDisplay:10.37,2013-04-24 18:20:00,
2013-04-24 13:25:00,53.4,38.6,30.01,NE,43,9.4,11.5,57,0.00,CLR,,0.01,WeatherDisplay:10.37,2013-04-24 18:25:00,
2013-04-24 13:30:00,53.8,38.4,30.01,North,358,11.1,17.3,56,0.00,CLR,,0.01,WeatherDisplay:10.37,2013-04-24 18:30:00,
2013-04-24 13:35:00,54.0,39.1,30.01,NNE,21,7.8,11.2,57,0.00,CLR,,0.01,WeatherDisplay:10.37,2013-04-24 18:35:00,
2013-04-24 13:40:00,54.3,38.0,30.01,NNE,21,12.1,19.6,54,0.00,CLR,,0.01,WeatherDisplay:10.37,2013-04-24 18:40:00,
2013-04-24 13:45:00,54.7,39.3,30.01,East,88,8.5,11.5,56,0.00,CLR,,0.01,WeatherDisplay:10.37,2013-04-24 18:45:00,
2013-04-24 13:50:00,55.0,38.2,30.00,ENE,65,11.7,16.1,53,0.00,CLR,,0.01,WeatherDisplay:10.37,2013-04-24 18:50:00,
2013-04-24 13:55:00,55.2,38.9,30.00,NNW,335,8.5,12.7,54,0.00,CLR,,0.01,WeatherDisplay:10.37,2013-04-24 18:55:00,
2013-04-24 14:00:00,55.2,38.4,30.00,NE,43,13.2,17.3,53,0.00,CLR,,0.01,WeatherDisplay:10.37,2013-04-24 19:00:00,
2013-04-24 14:05:00,55.2,37.9,30.00,NNE,21,4.6,11.5,52,0.00,CLR,,0.01,WeatherDisplay:10.37,2013-04-24 19:05:00,
2013-04-24 14:10:00,55.8,39.4,30.00,NE,43,11.8,19.6,54,0.00,CLR,,0.01,WeatherDisplay:10.37,2013-04-24 19:10:00,
2013-04-24 14:15:00,56.3,39.9,30.00,NE,43,9.8,14.1,54,0.00,CLR,,0.01,WeatherDisplay:10.37,2013-04-24 19:15:00,
2013-04-24 14:20:00,56.5,39.1,29.99,NE,43,13.4,17.3,52,0.00,CLR,,0.01,WeatherDisplay:10.37,2013-04-24 19:20:00,
2013-04-24 14:25:00,56.1,38.7,29.99,NE,43,11.2,15.0,52,0.00,CLR,,0.01,WeatherDisplay:10.37,2013-04-24 19:25:00,
2013-04-24 14:30:00,56.3,39.9,29.99,NNE,21,7.4,11.6,54,0.00,CLR,,0.01,WeatherDisplay:10.37,2013-04-24 19:30:00,
2013-04-24 14:35:00,56.8,39.4,29.99,NE,43,9.9,13.8,52,0.00,CLR,,0.01,WeatherDisplay:10.37,2013-04-24 19:35:00,
2013-04-24 14:40:00,57.0,39.6,29.99,East,88,7.9,10.4,52,0.00,CLR,,0.01,WeatherDisplay:10.37,2013-04-24 19:40:00,
2013-04-24 14:45:00,57.2,39.2,29.99,NE,43,13.6,18.4,51,0.00,CLR,,0.01,WeatherDisplay:10.37,2013-04-24 19:45:00,
2013-04-24 14:50:00,57.4,38.9,29.99,NE,43,12.0,15.5,50,0.00,CLR,,0.01,WeatherDisplay:10.37,2013-04-24 19:50:00,
2013-04-24 14:55:00,57.6,40.1,29.99,ENE,65,6.9,10.4,52,0.00,CLR,,0.01,WeatherDisplay:10.37,2013-04-24 19:55:00,
2013-04-24 15:00:00,58.1,40.6,29.98,NE,43,7.8,11.5,52,0.00,CLR,,0.01,WeatherDisplay:10.37,2013-04-24 20:00:00,
2013-04-24 15:05:00,58.5,39.9,29.99,NE,43,10.5,15.0,50,0.00,CLR,,0.01,WeatherDisplay:10.37,2013-04-24 20:05:00,
2013-04-24 15:10:00,58.6,40.6,29.98,East,88,7.9,11.5,51,0.00,CLR,,0.01,WeatherDisplay:10.37,2013-04-24 20:10:00,
2013-04-24 15:15:00,58.8,40.2,29.98,NE,43,10.6,12.9,50,0.00,CLR,,0.01,WeatherDisplay:10.37,2013-04-24 20:15:00,
2013-04-24 15:20:00,59.0,39.9,29.98,NE,43,12.8,16.1,49,0.00,CLR,,0.01,WeatherDisplay:10.37,2013-04-24 20:20:00,
2013-04-24 15:25:00,58.8,39.2,29.98,NE,43,8.8,11.5,48,0.00,CLR,,0.01,WeatherDisplay:10.37,2013-04-24 20:25:00,
2013-04-24 15:30:00,58.8,39.7,29.98,ENE,65,10.3,13.8,49,0.00,CLR,,0.01,WeatherDisplay:10.37,2013-04-24 20:30:00,
2013-04-24 15:35:00,59.0,39.9,29.98,NE,43,11.6,12.7,49,0.00,CLR,,0.01,WeatherDisplay:10.37,2013-04-24 20:35:00,
2013-04-24 15:40:00,59.2,40.0,29.98,ENE,65,8.7,11.5,49,0.00,CLR,,0.01,WeatherDisplay:10.37,2013-04-24 20:40:00,
2013-04-24 15:45:00,59.7,41.0,29.98,NNE,21,10.5,15.0,50,0.00,CLR,,0.01,WeatherDisplay:10.37,2013-04-24 20:45:00,
2013-04-24 15:50:00,59.5,39.3,29.97,NNW,335,6.5,12.7,47,0.00,CLR,,0.01,WeatherDisplay:10.37,2013-04-24 20:50:00,
2013-04-24 15:55:00,59.5,39.8,29.97,North,358,6.6,9.2,48,0.00,CLR,,0.01,WeatherDisplay:10.37,2013-04-24 20:55:00,
2013-04-24 16:00:00,60.1,40.3,29.97,NE,43,10.8,12.7,48,0.00,CLR,,0.01,WeatherDisplay:10.37,2013-04-24 21:00:00,
2013-04-24 16:05:00,60.3,41.0,29.97,ENE,65,7.3,11.5,49,0.00,CLR,,0.01,WeatherDisplay:10.37,2013-04-24 21:05:00,
2013-04-24 16:10:00,60.6,39.7,29.97,NE,43,8.4,12.8,46,0.00,CLR,,0.01,WeatherDisplay:10.37,2013-04-24 21:10:00,
2013-04-24 16:15:00,60.4,39.5,29.96,NNE,21,10.9,14.1,46,0.00,CLR,,0.01,WeatherDisplay:10.37,2013-04-24 21:15:00,
2013-04-24 16:20:00,60.4,40.6,29.96,East,88,4.4,10.4,48,0.00,CLR,,0.01,WeatherDisplay:10.37,2013-04-24 21:20:00,
2013-04-24 16:25:00,61.0,40.6,29.96,NNW,335,7.3,9.2,47,0.00,CLR,,0.01,WeatherDisplay:10.37,2013-04-24 21:25:00,
2013-04-24 16:30:00,61.2,40.2,29.96,NE,43,5.0,8.1,46,0.00,CLR,,0.01,WeatherDisplay:10.37,2013-04-24 21:30:00,
2013-04-24 16:35:00,61.3,40.4,29.96,SE,133,6.0,9.2,46,0.00,CLR,,0.01,WeatherDisplay:10.37,2013-04-24 21:35:00,
2013-04-24 16:40:00,61.5,40.0,29.96,NE,43,10.3,13.8,45,0.00,CLR,,0.01,WeatherDisplay:10.37,2013-04-24 21:40:00,
2013-04-24 16:46:00,61.7,40.7,29.96,NE,43,8.8,11.5,46,0.00,CLR,,0.01,WeatherDisplay:10.37,2013-04-24 21:46:00,
2013-04-24 16:51:00,61.7,39.6,29.96,North,358,8.6,11.5,44,0.00,CLR,,0.01,WeatherDisplay:10.37,2013-04-24 21:51:00,
2013-04-24 16:56:00,61.7,40.7,29.95,NE,43,9.8,12.7,46,0.00,CLR,,0.01,WeatherDisplay:10.37,2013-04-24 21:56:00,
2013-04-24 17:01:00,61.9,40.9,29.96,North,358,5.5,10.1,46,0.00,CLR,,0.01,WeatherDisplay:10.37,2013-04-24 22:01:00,
2013-04-24 17:06:00,62.1,39.9,29.96,North,358,6.4,8.1,44,0.00,CLR,,0.01,WeatherDisplay:10.37,2013-04-24 22:06:00,
2013-04-24 17:11:00,61.9,40.3,29.96,NE,43,5.8,8.1,45,0.00,CLR,,0.01,WeatherDisplay:10.37,2013-04-24 22:11:00,
2013-04-24 17:16:00,62.4,40.2,29.96,NE,43,10.2,13.8,44,0.00,CLR,,0.01,WeatherDisplay:10.37,2013-04-24 22:16:00,
2013-04-24 17:21:00,62.6,40.4,29.96,East,88,7.4,12.7,44,0.00,CLR,,0.01,WeatherDisplay:10.37,2013-04-24 22:21:00,
2013-04-24 17:26:00,63.1,41.4,29.96,NE,43,7.0,10.4,45,0.00,CLR,,0.01,WeatherDisplay:10.37,2013-04-24 22:26:00,
2013-04-24 17:31:00,63.3,39.2,29.96,NNW,335,6.6,9.2,41,0.00,CLR,,0.01,WeatherDisplay:10.37,2013-04-24 22:31:00,
2013-04-24 17:36:00,63.1,40.3,29.96,NE,43,9.0,11.5,43,0.00,CLR,,0.01,WeatherDisplay:10.37,2013-04-24 22:36:00,
2013-04-24 17:41:00,63.3,41.0,29.95,NNW,335,6.2,7.5,44,0.00,CLR,,0.01,WeatherDisplay:10.37,2013-04-24 22:41:00,
2013-04-24 17:46:00,63.5,40.6,29.95,NE,43,6.9,9.2,43,0.00,CLR,,0.01,WeatherDisplay:10.37,2013-04-24 22:46:00,
2013-04-24 17:51:00,63.7,41.3,29.96,NNE,21,6.6,9.2,44,0.00,CLR,,0.01,WeatherDisplay:10.37,2013-04-24 22:51:00,
2013-04-24 17:56:00,64.0,41.1,29.95,NE,43,7.0,10.4,43,0.00,CLR,,0.01,WeatherDisplay:10.37,2013-04-24 22:56:00,
2013-04-24 18:01:00,64.0,40.5,29.95,North,358,5.5,6.9,42,0.00,CLR,,0.01,WeatherDisplay:10.37,2013-04-24 23:01:00,
2013-04-24 18:06:00,64.2,41.2,29.96,NE,43,6.6,9.2,43,0.00,CLR,,0.01,WeatherDisplay:10.37,2013-04-24 23:06:00,
2013-04-24 18:11:00,64.4,41.4,29.96,East,88,4.7,5.8,43,0.00,CLR,,0.01,WeatherDisplay:10.37,2013-04-24 23:11:00,
2013-04-24 18:16:00,64.8,41.7,29.96,ENE,65,6.5,9.2,43,0.00,CLR,,0.01,WeatherDisplay:10.37,2013-04-24 23:16:00,
2013-04-24 18:21:00,64.8,40.5,29.96,NE,43,6.7,9.2,41,0.00,CLR,,0.01,WeatherDisplay:10.37,2013-04-24 23:21:00,
2013-04-24 18:26:00,64.8,40.5,29.96,NE,43,5.3,6.9,41,0.00,CLR,,0.01,WeatherDisplay:10.37,2013-04-24 23:26:00,
2013-04-24 18:31:00,64.6,40.3,29.96,East,88,6.8,9.2,41,0.00,CLR,,0.01,WeatherDisplay:10.37,2013-04-24 23:31:00,
2013-04-24 18:36:00,64.4,40.8,29.96,NE,43,6.2,8.1,42,0.00,CLR,,0.01,WeatherDisplay:10.37,2013-04-24 23:36:00,
2013-04-24 18:41:00,64.6,40.3,29.96,East,88,5.0,6.9,41,0.00,CLR,,0.01,WeatherDisplay:10.37,2013-04-24 23:41:00,
2013-04-24 18:46:00,64.6,39.7,29.96,NE,43,7.7,11.5,40,0.00,CLR,,0.01,WeatherDisplay:10.37,2013-04-24 23:46:00,
2013-04-24 18:51:00,64.4,39.5,29.96,ENE,65,6.8,12.7,40,0.00,CLR,,0.01,WeatherDisplay:10.37,2013-04-24 23:51:00,
2013-04-24 18:56:00,64.4,39.5,29.96,NE,43,6.0,8.1,40,0.00,CLR,,0.01,WeatherDisplay:10.37,2013-04-24 23:56:00,
2013-04-24 19:01:00,64.2,39.4,29.96,NE,43,6.2,9.2,40,0.00,CLR,,0.01,WeatherDisplay:10.37,2013-04-25 00:01:00,
2013-04-24 19:06:00,64.0,39.2,29.96,East,88,6.4,9.2,40,0.00,CLR,,0.01,WeatherDisplay:10.37,2013-04-25 00:06:00,
2013-04-24 19:11:00,63.9,39.1,29.97,NE,43,6.5,9.2,40,0.00,CLR,,0.01,WeatherDisplay:10.37,2013-04-25 00:11:00,
2013-04-24 19:16:00,63.7,38.9,29.96,NE,43,5.5,6.9,40,0.00,CLR,,0.01,WeatherDisplay:10.37,2013-04-25 00:16:00,
2013-04-24 19:21:00,63.7,39.5,29.97,NE,43,3.4,4.6,41,0.00,CLR,,0.01,WeatherDisplay:10.37,2013-04-25 00:21:00,
2013-04-24 19:26:00,63.7,40.1,29.97,NNE,21,4.8,5.8,42,0.00,CLR,,0.01,WeatherDisplay:10.37,2013-04-25 00:26:00,
2013-04-24 19:31:00,63.5,40.0,29.97,NNE,21,5.0,6.9,42,0.00,CLR,,0.01,WeatherDisplay:10.37,2013-04-25 00:31:00,
2013-04-24 19:36:00,63.0,39.5,29.97,NE,43,5.0,6.9,42,0.00,CLR,,0.01,WeatherDisplay:10.37,2013-04-25 00:36:00,
2013-04-24 19:41:00,62.6,39.8,29.97,NE,43,3.2,4.6,43,0.00,CLR,,0.01,WeatherDisplay:10.37,2013-04-25 00:41:00,
2013-04-24 19:46:00,62.1,39.9,29.98,NNE,21,4.7,5.8,44,0.00,CLR,,0.01,WeatherDisplay:10.37,2013-04-25 00:46:00,
2013-04-24 19:51:00,61.5,39.4,29.98,NNE,21,3.1,4.6,44,0.00,CLR,,0.01,WeatherDisplay:10.37,2013-04-25 00:51:00,
2013-04-24 19:56:00,60.8,39.3,29.98,NNE,21,3.2,4.3,45,0.00,CLR,,0.01,WeatherDisplay:10.37,2013-04-25 00:56:00,
2013-04-24 20:01:00,60.4,39.5,29.98,NNE,21,2.9,3.5,46,0.00,CLR,,0.01,WeatherDisplay:10.37,2013-04-25 01:01:00,
2013-04-24 20:06:00,60.1,39.8,29.98,NNE,21,3.4,4.6,47,0.00,CLR,,0.01,WeatherDisplay:10.37,2013-04-25 01:06:00,
2013-04-24 20:11:00,59.5,39.3,29.99,NNE,21,3.7,4.6,47,0.00,CLR,,0.01,WeatherDisplay:10.37,2013-04-25 01:11:00,
2013-04-24 20:16:00,59.4,39.7,29.99,NNE,21,4.7,5.8,48,0.00,CLR,,0.01,WeatherDisplay:10.37,2013-04-25 01:16:00,
2013-04-24 20:21:00,58.8,39.2,29.99,NNE,21,4.0,5.8,48,0.00,CLR,,0.01,WeatherDisplay:10.37,2013-04-25 01:21:00,
2013-04-24 20:26:00,58.6,39.5,29.99,North,358,4.2,6.9,49,0.00,CLR,,0.01,WeatherDisplay:10.37,2013-04-25 01:26:00,
2013-04-24 20:31:00,58.5,39.4,29.99,NE,43,2.6,4.6,49,0.00,CLR,,0.01,WeatherDisplay:10.37,2013-04-25 01:31:00,
2013-04-24 20:36:00,58.5,39.9,29.99,NE,43,1.5,3.5,50,0.00,CLR,,0.01,WeatherDisplay:10.37,2013-04-25 01:36:00,
2013-04-24 20:41:00,58.3,39.7,30.00,NE,43,2.5,3.5,50,0.00,CLR,,0.01,WeatherDisplay:10.37,2013-04-25 01:41:00,
2013-04-24 20:46:00,58.1,40.1,30.00,NE,43,2.5,3.5,51,0.00,CLR,,0.01,WeatherDisplay:10.37,2013-04-25 01:46:00,
2013-04-24 20:51:00,57.9,39.9,30.00,NNE,21,2.0,3.5,51,0.00,CLR,,0.01,WeatherDisplay:10.37,2013-04-25 01:51:00,
2013-04-24 20:56:00,57.7,40.2,30.00,NNE,21,1.4,2.3,52,0.00,CLR,,0.01,WeatherDisplay:10.37,2013-04-25 01:56:00,
2013-04-24 21:01:00,57.7,40.2,30.00,NNW,335,1.4,2.3,52,0.00,CLR,,0.01,WeatherDisplay:10.37,2013-04-25 02:01:00,
2013-04-24 21:06:00,57.7,40.2,30.00,NNE,21,1.7,2.3,52,0.00,CLR,,0.01,WeatherDisplay:10.37,2013-04-25 02:06:00,
2013-04-24 21:11:00,57.7,40.2,30.01,NE,43,1.4,2.3,52,0.00,CLR,,0.01,WeatherDisplay:10.37,2013-04-25 02:11:00,
2013-04-24 21:16:00,57.7,40.7,30.01,NNE,21,0.0,1.1,53,0.00,CLR,,0.01,WeatherDisplay:10.37,2013-04-25 02:16:00,
2013-04-24 21:22:00,57.7,40.7,30.01,NE,43,0.2,1.1,53,0.00,CLR,,0.01,WeatherDisplay:10.37,2013-04-25 02:22:00,
2013-04-24 21:27:00,57.6,41.0,30.02,North,358,0.0,0.0,54,0.00,CLR,,0.01,WeatherDisplay:10.37,2013-04-25 02:27:00,
2013-04-24 21:32:00,57.7,41.7,30.02,NW,313,0.5,1.1,55,0.00,CLR,,0.01,WeatherDisplay:10.37,2013-04-25 02:32:00,
2013-04-24 21:37:00,57.6,41.0,30.02,NNW,335,1.6,2.3,54,0.00,CLR,,0.01,WeatherDisplay:10.37,2013-04-25 02:37:00,
2013-04-24 21:42:00,57.4,40.9,30.02,NNW,335,1.3,2.3,54,0.00,CLR,,0.01,WeatherDisplay:10.37,2013-04-25 02:42:00,
2013-04-24 21:47:00,57.2,40.7,30.03,North,358,1.3,2.3,54,0.00,CLR,,0.01,WeatherDisplay:10.37,2013-04-25 02:47:00,
2013-04-24 21:52:00,56.8,40.4,30.03,NNW,335,2.7,3.5,54,0.00,CLR,,0.01,WeatherDisplay:10.37,2013-04-25 02:52:00,
2013-04-24 21:57:00,56.5,40.0,30.03,North,358,2.6,3.5,54,0.00,CLR,,0.01,WeatherDisplay:10.37,2013-04-25 02:57:00,
2013-04-24 22:02:00,56.3,40.3,30.03,NNW,335,2.4,3.5,55,0.00,SCT,,0.01,WeatherDisplay:10.37,2013-04-25 03:02:00,
2013-04-24 22:07:00,56.1,40.2,30.03,North,358,1.8,2.3,55,0.00,SCT,,0.01,WeatherDisplay:10.37,2013-04-25 03:07:00,
2013-04-24 22:12:00,56.1,40.2,30.03,NW,313,2.2,3.5,55,0.00,SCT,,0.01,WeatherDisplay:10.37,2013-04-25 03:12:00,
2013-04-24 22:17:00,55.9,40.5,30.03,NNE,21,2.4,3.5,56,0.00,SCT,,0.01,WeatherDisplay:10.37,2013-04-25 03:17:00,
2013-04-24 22:22:00,55.9,40.5,30.04,North,358,2.3,3.5,56,0.00,SCT,,0.01,WeatherDisplay:10.37,2013-04-25 03:22:00,
2013-04-24 22:27:00,55.8,40.3,30.04,North,358,1.8,2.3,56,0.00,SCT,,0.01,WeatherDisplay:10.37,2013-04-25 03:27:00,
2013-04-24 22:32:00,55.8,40.7,30.04,NNW,335,2.1,3.1,57,0.00,SCT,,0.01,WeatherDisplay:10.37,2013-04-25 03:32:00,
2013-04-24 22:37:00,55.8,40.7,30.04,North,358,2.7,4.6,57,0.00,SCT,,0.01,WeatherDisplay:10.37,2013-04-25 03:37:00,
2013-04-24 22:42:00,55.4,40.4,30.04,NNW,335,2.9,4.6,57,0.00,SCT,,0.01,WeatherDisplay:10.37,2013-04-25 03:42:00,
2013-04-24 22:47:00,55.2,40.2,30.04,NNW,335,2.3,4.6,57,0.00,SCT,,0.01,WeatherDisplay:10.37,2013-04-25 03:47:00,
2013-04-24 22:52:00,55.2,40.7,30.04,North,358,2.2,3.5,58,0.00,SCT,,0.01,WeatherDisplay:10.37,2013-04-25 03:52:00,
2013-04-24 22:57:00,55.2,40.7,30.04,North,358,2.1,3.5,58,0.00,SCT,,0.01,WeatherDisplay:10.37,2013-04-25 03:57:00,
2013-04-24 23:01:00,55.0,40.5,30.04,NNW,335,2.9,3.5,58,0.00,SCT,,0.01,WeatherDisplay:10.37,2013-04-25 04:01:00,
2013-04-24 23:02:00,55.0,40.5,30.04,North,358,2.9,3.5,58,0.00,SCT,,0.01,WeatherDisplay:10.37,2013-04-25 04:02:00,
2013-04-24 23:07:00,55.0,40.5,30.04,North,358,2.6,3.5,58,0.00,SCT,,0.01,WeatherDisplay:10.37,2013-04-25 04:07:00,
2013-04-24 23:12:00,55.0,40.5,30.04,North,358,1.8,2.3,58,0.00,SCT,,0.01,WeatherDisplay:10.37,2013-04-25 04:12:00,
2013-04-24 23:17:00,54.9,40.4,30.04,North,358,2.4,3.2,58,0.00,SCT,,0.01,WeatherDisplay:10.37,2013-04-25 04:17:00,
2013-04-24 23:22:00,55.0,41.0,30.04,NNW,335,1.8,2.3,59,0.00,SCT,,0.01,WeatherDisplay:10.37,2013-04-25 04:22:00,
2013-04-24 23:27:00,55.0,41.0,30.04,North,358,2.2,3.5,59,0.00,SCT,,0.01,WeatherDisplay:10.37,2013-04-25 04:27:00,
2013-04-24 23:32:00,54.9,40.8,30.04,North,358,1.3,2.3,59,0.00,SCT,,0.01,WeatherDisplay:10.37,2013-04-25 04:32:00,
2013-04-24 23:37:00,54.9,40.8,30.04,North,358,2.1,2.3,59,0.00,SCT,,0.01,WeatherDisplay:10.37,2013-04-25 04:37:00,
2013-04-24 23:42:00,54.9,40.8,30.04,NNW,335,2.9,4.6,59,0.00,SCT,,0.01,WeatherDisplay:10.37,2013-04-25 04:42:00,
2013-04-24 23:47:00,54.7,40.2,30.04,NE,43,3.6,5.4,58,0.00,SCT,,0.01,WeatherDisplay:10.37,2013-04-25 04:47:00,
2013-04-24 23:52:00,54.5,40.0,30.04,NE,43,1.6,3.5,58,0.00,SCT,,0.01,WeatherDisplay:10.37,2013-04-25 04:52:00,
2013-04-24 23:57:00,54.5,40.0,30.05,North,358,0.8,1.4,58,0.00,SCT,,0.01,WeatherDisplay:10.37,2013-04-25 04:57:00,